Regional Weather Roundup
Issued by NWS

Home | Current Version | Previous Version | Graphics & Text | Print | Product List | Glossary Off
Versions: 1 2 3 4 5 6 7 8 9 10 11 12 13 14 15 16 17 18 19 20 21 22 23 24 25 26 27 28 29 30 31 32 33 34 35 36 37 38 39 40 41 42 43 44 45 46 47 48 49 50

000
ASUS43 KDTX 300401
RWRMI
MICHIGAN HOURLY REGIONAL WEATHER ROUNDUP
NATIONAL WEATHER SERVICE DETROIT/PONTIAC MI
1200 AM EDT SUN AUG 30 2015

NOTE: "FAIR" INDICATES FEW OR NO CLOUDS BELOW 12,000 FEET WITH NO
SIGNIFICANT WEATHER AND/OR OBSTRUCTION TO VISIBILITY.

MIZ047>049-052>055-059>063-066>070-074>076-081>083-300500-
SOUTHEAST LOWER MICHIGAN

CITY           SKY/WX    TMP DP  RH WIND       PRES   REMARKS
ADRIAN         LGT RAIN  68  67  96 CALM      30.08F FOG
ALMA           CLOUDY    64  64  98 CALM      30.07F FOG
ANN ARBOR      LGT RAIN  68  65  90 CALM      30.07F
BAD AXE        CLOUDY    63  62  96 CALM      30.09F FOG
CARO           CLOUDY    63  63  99 CALM      30.07S
DETROIT CITY   LGT RAIN  69  64  84 E5        30.08S
DETROIT        LGT RAIN  71  65  81 CALM      30.08S
FLINT          CLOUDY    68  64  87 E3        30.07F FOG
GROSSE ILE     CLOUDY    70  64  83 CALM      30.06F
HILLSDALE      CLOUDY    66  66 100 SE3       30.08F
HOWELL         CLOUDY    66  66  99 SE5       30.07F FOG

CITY           SKY/WX    TMP DP  RH WIND       PRES   REMARKS
JACKSON        CLOUDY    67  66  97 E6        30.06F FOG
LAMBERTVILLE   LGT RAIN  68  65  90 CALM      30.08R
LANSING        CLOUDY    66  65  96 CALM      30.07S
LAPEER         CLOUDY    64  64  99 CALM      30.08F FOG
MASON          CLOUDY    67  64  90 SE3       30.06F FOG
MONROE         CLOUDY    66  65  94 CALM      30.06F FOG
MT. CLEMENS    CLOUDY    66  66 100 NW2       30.07S
PONTIAC        LGT RAIN  65  63  93 E5        30.07F
PORT HOPE        N/A     65  63  93 CALM      30.07F
PORT HURON     RAIN      66  66 100 CALM      30.09F
TRI CITIES     CLOUDY    66  63  90 CALM      30.08S FOG
MIDLAND        CLOUDY    64  64  97 CALM      30.07S FOG
TROY           CLOUDY    67  65  92 N3        30.10S
SAGINAW HB     CLOUDY    64  63  94 CALM      30.07S FOG
$$
MIZ043>046-050>051-056>058-064>065-071>073-077>080-300500-
SOUTHWEST LOWER MICHIGAN

CITY           SKY/WX    TMP DP  RH WIND       PRES   REMARKS
BATTLE CREEK   CLOUDY    68  66  93 SE5       30.05F
BENTON HARBOR  CLOUDY    68  66  93 SE3       30.02S FOG
BIG RAPIDS     CLOUDY    63  62  97 CALM      30.07S FOG
COLDWATER      DRIZZLE   66  66  98 SE3       30.06F
FREMONT        CLOUDY    64  64 100 E5        30.05S FOG
HOLLAND        CLOUDY    67  65  93 E3        30.04F FOG
GRAND RAPIDS   CLOUDY    66  65  96 E5        30.05S FOG
IONIA          CLOUDY    65  65 100 E3        30.05F FOG
KALAMAZOO      CLOUDY    68  64  87 S5        30.05S
LUDINGTON      CLOUDY    65  63  91 CALM      30.07S
MARSHALL       LGT RAIN  67  66  96 SE5       30.05F
MOUNT PLEASANT CLOUDY    65  63  93 CALM      30.07S FOG
MUSKEGON       CLOUDY    66  62  87 NE5       30.05S FOG
SOUTH HAVEN    CLOUDY    67  65  94 CALM      30.02F FOG
$$
MIZ016>042-300500-
NORTHERN LOWER MICHIGAN

CITY           SKY/WX    TMP DP  RH WIND       PRES   REMARKS
ALPENA         CLEAR     58  56  93 CALM      30.08S
BEAVER ISLAND  FOG       56  56  98 CALM      30.06S VSB 3/4
BELLAIRE       FOG       58  57  96 CALM      30.07S VSB 1
CADILLAC       CLOUDY    56  56  97 CALM      30.08S FOG
CHARLEVOIX     CLEAR     59  59  99 S3        30.09S FOG
FRANKFORT      CLEAR     58  58  97 CALM      30.07S FOG
GAYLORD        CLEAR     60  59  96 SW3       30.09S
GRAYLING       FOG       55  55  99 CALM      30.09S VSB 1/4
HARBOR SPRINGS CLEAR     58  57  97 CALM      30.07S
HOUGHTON LAKE  FOG       55  55 100 CALM      30.09S VSB 1/4
MANISTEE       CLOUDY    64  61  88 CALM      30.07S
OSCODA         CLEAR     58  57  97 CALM      30.07F FOG
PELLSTON       CLEAR     56  55  97 CALM      30.07S
ROGERS CITY    CLEAR     60  58  94 CALM      30.07F
TRAVERSE CITY  CLOUDY    66  62  87 CALM      30.06S
$$
MIZ007>008-015-300500-
EASTERN UPPER MICHIGAN

CITY           SKY/WX    TMP DP  RH WIND       PRES   REMARKS
KINROSS        CLOUDY    63  63 100 S5        30.05F
MACKINAC ISLAN CLEAR     62  61  94 S6        30.06S
NEWBERRY       MOCLDY    58  58  99 SW5       30.05F FOG
S. S. MARIE    CLOUDY    61  59  93 SE3       30.05S
$$
MIZ004>006-011>014-085-300500-
CENTRAL UPPER MICHIGAN

CITY           SKY/WX    TMP DP  RH WIND       PRES   REMARKS
MANISTIQUE     CLEAR     59  58  97 S3        30.04F FOG
ESCANABA       CLEAR     63  59  88 S7        30.03S
MENOMINEE      CLEAR     61  57  88 SW5       30.04S
SAWYER-GWINN   CLEAR     64  60  89 S8        30.04S
$$
MIZ001>003-009>011-084-300500-
WESTERN UPPER MICHIGAN

CITY           SKY/WX    TMP DP  RH WIND       PRES   REMARKS
IRON MOUNTAIN  CLEAR     61  59  93 S5        30.03S
HOUGHTON       MOCLDY    63  59  87 CALM      29.99F
IRONWOOD       CLEAR     61  59  94 CALM      29.99S
$$

ABBREVIATIONS USED IN REMARKS
   TC - TEMPERATURE IN CELSIUS
  WCI - WIND CHILL INDEX
   HX - HEAT INDEX
  VSB - VISIBILITY



USA.gov is the U.S. government's official web portal to all federal, state and local government web resources and services.